Location: ČR
(50.0000°N, 15.0000°E)
Time: 10:33:13
(UTC+02:00)

A-11 Canister half - Pass Details

Date: 23 March 2026
Orbit: 1514 x 1685 km, 47.2° (Epoch: 16 April)

Event Time Altitude Azimuth Distance (km) Brightness Sun altitude
Rises 15:00:22 0° 268° (W) 4,849 12.4 28.8°
Reaches altitude 10° 15:03:27 10° 267° (W) 3,883 12.1 28.4°
Maximum altitude 15:13:26 77° 184° (S) 1,714 9.9 27.2°
Drops below altitude 10° 15:23:36 10° 101° (E) 3,949 10.8 25.8°
Sets 15:26:46 0° 100° (E) 4,935 11.2 25.4°
